AMX1456 MMMX-MMZH

Flight info

Callsign AMX1456
Flight time 0h 39m
Altitude 26000
Route ULEBA3A ULEBA UT122 IKLEM IKLEM2D
Aircraft B738/M-SDE2E3FGHIRWXY/LB1

Departure

Time 2026-04-20 22:43
Airport Mexico City Benito Juárez International Airport (MMMX)

Arrival

Time 2026-04-20 23:23
Airport Ixtapa-Zihuatanejo International Airport (MMZH)
Time Latitude Longitude Altitude Speed Heading
2026-04-20 22:40 19.42613 -99.08453 7302 ft 0 kts 294°
2026-04-20 22:41 19.42616 -99.08462 7302 ft 4 kts 294°
2026-04-20 22:41 19.42636 -99.08510 7302 ft 10 kts 292°
2026-04-20 22:41 19.42685 -99.08577 7303 ft 13 kts 354°
2026-04-20 22:41 19.42745 -99.08506 7302 ft 15 kts 61°
2026-04-20 22:42 19.42762 -99.08475 7302 ft 3 kts 61°
2026-04-20 22:42 19.42780 -99.08439 7302 ft 8 kts 60°
2026-04-20 22:42 19.42875 -99.08272 7302 ft 56 kts 59°
2026-04-20 22:42 19.43181 -99.07728 7304 ft 114 kts 59°
2026-04-20 22:43 19.43671 -99.06849 7303 ft 161 kts 59°
2026-04-20 22:43 19.44282 -99.05760 7731 ft 177 kts 58°
2026-04-20 22:43 19.44951 -99.04581 8500 ft 188 kts 57°
2026-04-20 22:43 19.45663 -99.03406 9150 ft 192 kts 56°
2026-04-20 22:44 19.46425 -99.02153 9280 ft 214 kts 57°
2026-04-20 22:44 19.47269 -99.00770 9389 ft 235 kts 56°
2026-04-20 22:44 19.48186 -98.99262 9589 ft 251 kts 56°
2026-04-20 22:44 19.49152 -98.97668 9993 ft 260 kts 57°
2026-04-20 22:45 19.49775 -98.95867 10431 ft 267 kts 84°
2026-04-20 22:45 19.49489 -98.93915 10893 ft 274 kts 112°
2026-04-20 22:45 19.48364 -98.92295 11444 ft 278 kts 140°
2026-04-20 22:45 19.46640 -98.91372 11956 ft 282 kts 167°
2026-04-20 22:46 19.44681 -98.91378 12512 ft 285 kts 194°
2026-04-20 22:46 19.42958 -98.92335 13056 ft 288 kts 223°
2026-04-20 22:46 19.41774 -98.94069 13618 ft 289 kts 243°
2026-04-20 22:46 19.40982 -98.96009 14171 ft 292 kts 248°
2026-04-20 22:47 19.40249 -98.98024 14666 ft 294 kts 249°
2026-04-20 22:47 19.39494 -99.00048 15176 ft 296 kts 248°
2026-04-20 22:47 19.38709 -99.02069 15686 ft 297 kts 247°
2026-04-20 22:47 19.37906 -99.04094 16188 ft 299 kts 247°
2026-04-20 22:48 19.37117 -99.06135 16676 ft 301 kts 252°
2026-04-20 22:48 19.36634 -99.08299 17162 ft 303 kts 260°
2026-04-20 22:48 19.36321 -99.10511 17659 ft 305 kts 262°
2026-04-20 22:48 19.36043 -99.12726 18148 ft 307 kts 262°
2026-04-20 22:49 19.35756 -99.14973 18598 ft 309 kts 262°
2026-04-20 22:49 19.35453 -99.17233 19005 ft 310 kts 261°
2026-04-20 22:49 19.35139 -99.19493 19431 ft 311 kts 261°
2026-04-20 22:49 19.34809 -99.21807 19576 ft 328 kts 261°
2026-04-20 22:50 19.34453 -99.24263 19688 ft 346 kts 261°
2026-04-20 22:50 19.34076 -99.26846 19752 ft 364 kts 261°
2026-04-20 22:50 19.33677 -99.29560 19848 ft 380 kts 261°
2026-04-20 22:50 19.33265 -99.32363 20160 ft 389 kts 261°
2026-04-20 22:51 19.32845 -99.35214 20608 ft 394 kts 261°
2026-04-20 22:51 19.32422 -99.38072 21244 ft 392 kts 260°
2026-04-20 22:51 19.31711 -99.40826 22082 ft 385 kts 248°
2026-04-20 22:51 19.30663 -99.43430 22795 ft 382 kts 246°
2026-04-20 22:52 19.29583 -99.45998 23444 ft 381 kts 246°
2026-04-20 22:52 19.28503 -99.48562 24004 ft 383 kts 246°
2026-04-20 22:52 19.27424 -99.51144 24375 ft 383 kts 246°
2026-04-20 22:52 19.26362 -99.53715 24385 ft 380 kts 246°
2026-04-20 22:53 19.25322 -99.56254 24409 ft 382 kts 246°
2026-04-20 22:53 19.24267 -99.58839 24409 ft 383 kts 246°
2026-04-20 22:53 19.23206 -99.61442 24533 ft 388 kts 246°
2026-04-20 22:53 19.22141 -99.64058 25042 ft 385 kts 246°
2026-04-20 22:54 19.21091 -99.66638 25667 ft 379 kts 246°
2026-04-20 22:54 19.20051 -99.69188 26083 ft 377 kts 247°
2026-04-20 22:54 19.19021 -99.71715 26253 ft 372 kts 246°
2026-04-20 22:54 19.17992 -99.74238 26207 ft 373 kts 246°
2026-04-20 22:55 19.16964 -99.76756 26178 ft 373 kts 246°
2026-04-20 22:55 19.15933 -99.79278 26150 ft 373 kts 246°
2026-04-20 22:55 19.14903 -99.81795 26116 ft 373 kts 246°
2026-04-20 22:55 19.13875 -99.84306 26071 ft 373 kts 246°
2026-04-20 22:56 19.12843 -99.86824 26033 ft 373 kts 246°
2026-04-20 22:56 19.11810 -99.89342 26019 ft 375 kts 246°
2026-04-20 22:56 19.10758 -99.91908 26026 ft 385 kts 246°
2026-04-20 22:56 19.09679 -99.94537 26015 ft 395 kts 246°
2026-04-20 22:57 19.08581 -99.97215 26005 ft 398 kts 246°
2026-04-20 22:57 19.07482 -99.99890 25984 ft 395 kts 246°
2026-04-20 22:57 19.06391 -100.02549 25972 ft 393 kts 246°
2026-04-20 22:57 19.05303 -100.05196 25966 ft 392 kts 246°
2026-04-20 22:58 19.04219 -100.07833 25956 ft 390 kts 246°
2026-04-20 22:58 19.03138 -100.10461 25951 ft 389 kts 246°
2026-04-20 22:58 19.02038 -100.13075 25937 ft 389 kts 242°
2026-04-20 22:58 19.00467 -100.15401 25930 ft 390 kts 226°
2026-04-20 22:59 18.98410 -100.17264 25933 ft 391 kts 219°
2026-04-20 22:59 18.96250 -100.19022 25913 ft 393 kts 219°
2026-04-20 22:59 18.94080 -100.20783 25908 ft 394 kts 219°
2026-04-20 22:59 18.91919 -100.22576 25891 ft 396 kts 220°
2026-04-20 23:00 18.89790 -100.24364 25875 ft 396 kts 220°
2026-04-20 23:00 18.87601 -100.26208 25874 ft 397 kts 220°
2026-04-20 23:00 18.85442 -100.28025 25861 ft 397 kts 220°
2026-04-20 23:00 18.83284 -100.29839 25863 ft 397 kts 220°
2026-04-20 23:01 18.81124 -100.31654 25851 ft 397 kts 220°
2026-04-20 23:01 18.78967 -100.33465 25835 ft 397 kts 220°
2026-04-20 23:01 18.76803 -100.35282 25819 ft 396 kts 220°
2026-04-20 23:01 18.74650 -100.37090 25818 ft 395 kts 220°
2026-04-20 23:02 18.72499 -100.38894 25820 ft 394 kts 220°
2026-04-20 23:02 18.70349 -100.40698 25811 ft 394 kts 219°
2026-04-20 23:02 18.68205 -100.42496 25803 ft 394 kts 219°
2026-04-20 23:02 18.66062 -100.44293 25802 ft 393 kts 219°
2026-04-20 23:03 18.63921 -100.46087 25797 ft 393 kts 219°
2026-04-20 23:03 18.61778 -100.47883 25795 ft 394 kts 219°
2026-04-20 23:03 18.59633 -100.49680 25786 ft 394 kts 219°
2026-04-20 23:03 18.57486 -100.51477 25781 ft 394 kts 219°
2026-04-20 23:04 18.55339 -100.53274 25779 ft 393 kts 219°
2026-04-20 23:04 18.53231 -100.55038 25771 ft 390 kts 219°
2026-04-20 23:04 18.51152 -100.56776 25775 ft 390 kts 219°
2026-04-20 23:04 18.49020 -100.58559 25776 ft 392 kts 219°
2026-04-20 23:05 18.46884 -100.60345 25688 ft 393 kts 219°
2026-04-20 23:05 18.44748 -100.62130 25387 ft 390 kts 219°
2026-04-20 23:05 18.42624 -100.63905 24967 ft 388 kts 219°
2026-04-20 23:05 18.40518 -100.65664 24564 ft 385 kts 219°
2026-04-20 23:06 18.38422 -100.67413 24132 ft 384 kts 219°
2026-04-20 23:06 18.36331 -100.69159 23692 ft 383 kts 219°
2026-04-20 23:06 18.34244 -100.70901 23236 ft 383 kts 219°
2026-04-20 23:06 18.32162 -100.72637 22751 ft 381 kts 219°
2026-04-20 23:07 18.30086 -100.74368 22309 ft 379 kts 219°
2026-04-20 23:07 18.28032 -100.76081 21873 ft 376 kts 219°
2026-04-20 23:07 18.25985 -100.77787 21447 ft 374 kts 218°
2026-04-20 23:07 18.23950 -100.79483 21036 ft 372 kts 218°
2026-04-20 23:08 18.21921 -100.81173 20620 ft 370 kts 218°
2026-04-20 23:08 18.19905 -100.82851 20214 ft 369 kts 218°
2026-04-20 23:08 18.18102 -100.84747 19790 ft 368 kts 234°
2026-04-20 23:08 18.16939 -100.87141 19344 ft 369 kts 248°
2026-04-20 23:09 18.16021 -100.89664 18846 ft 371 kts 249°
2026-04-20 23:09 18.15432 -100.91354 18532 ft 372 kts 249°
2026-04-20 23:09 18.14546 -100.93916 18029 ft 374 kts 249°
2026-04-20 23:09 18.13649 -100.96485 17490 ft 374 kts 249°
2026-04-20 23:10 18.12446 -100.99881 16888 ft 372 kts 249°
2026-04-20 23:10 18.11534 -101.02427 16432 ft 372 kts 249°
2026-04-20 23:10 18.10917 -101.04142 16106 ft 372 kts 249°
2026-04-20 23:10 18.09999 -101.06685 15627 ft 372 kts 249°
2026-04-20 23:11 18.09080 -101.09226 15150 ft 372 kts 249°
2026-04-20 23:11 18.08171 -101.11742 14674 ft 364 kts 249°
2026-04-20 23:11 18.07280 -101.14208 14190 ft 358 kts 249°
2026-04-20 23:11 18.06402 -101.16633 13732 ft 351 kts 249°
2026-04-20 23:12 18.05542 -101.19007 13211 ft 345 kts 249°
2026-04-20 23:12 18.04616 -101.21309 12748 ft 340 kts 239°
2026-04-20 23:12 18.03110 -101.23181 12301 ft 333 kts 221°
2026-04-20 23:12 18.01404 -101.24808 11898 ft 331 kts 221°
2026-04-20 23:13 17.99690 -101.26433 11461 ft 332 kts 221°
2026-04-20 23:13 17.97998 -101.28054 11021 ft 326 kts 222°
2026-04-20 23:13 17.96349 -101.29646 10664 ft 318 kts 222°
2026-04-20 23:13 17.94743 -101.31202 10332 ft 308 kts 222°
2026-04-20 23:14 17.93218 -101.32680 10322 ft 288 kts 222°
2026-04-20 23:14 17.91791 -101.34065 10301 ft 270 kts 222°
2026-04-20 23:14 17.90451 -101.35365 10230 ft 256 kts 222°
2026-04-20 23:14 17.89127 -101.36649 9650 ft 265 kts 222°
2026-04-20 23:15 17.87722 -101.38010 8848 ft 280 kts 222°
2026-04-20 23:15 17.86284 -101.39404 8352 ft 281 kts 223°
2026-04-20 23:15 17.84877 -101.40766 7977 ft 277 kts 223°
2026-04-20 23:15 17.83448 -101.42149 7554 ft 274 kts 223°
2026-04-20 23:16 17.81917 -101.43257 7116 ft 273 kts 200°
2026-04-20 23:16 17.80048 -101.43534 6471 ft 279 kts 173°
2026-04-20 23:16 17.78209 -101.42810 5665 ft 291 kts 144°
2026-04-20 23:16 17.76835 -101.41255 5244 ft 285 kts 125°
2026-04-20 23:17 17.75671 -101.39619 4967 ft 275 kts 129°
2026-04-20 23:17 17.74507 -101.38083 4718 ft 265 kts 129°
2026-04-20 23:17 17.73374 -101.36594 4441 ft 257 kts 129°
2026-04-20 23:17 17.72276 -101.35141 4189 ft 250 kts 129°
2026-04-20 23:18 17.71199 -101.33768 4053 ft 237 kts 138°
2026-04-20 23:18 17.69797 -101.32968 3828 ft 227 kts 168°
2026-04-20 23:18 17.68253 -101.32820 3585 ft 220 kts 181°
2026-04-20 23:18 17.66745 -101.32863 3365 ft 213 kts 182°
2026-04-20 23:19 17.65293 -101.32917 3098 ft 205 kts 182°
2026-04-20 23:19 17.63901 -101.32963 2856 ft 197 kts 182°
2026-04-20 23:19 17.62553 -101.33002 2620 ft 190 kts 182°
2026-04-20 23:19 17.61271 -101.33101 2367 ft 181 kts 197°
2026-04-20 23:20 17.60282 -101.33825 2130 ft 174 kts 236°
2026-04-20 23:20 17.59945 -101.35011 1943 ft 172 kts 272°
2026-04-20 23:20 17.59961 -101.36221 1785 ft 161 kts 269°
2026-04-20 23:20 17.59955 -101.37361 1573 ft 153 kts 270°
2026-04-20 23:21 17.59972 -101.38434 1390 ft 148 kts 270°
2026-04-20 23:21 17.59996 -101.39514 1180 ft 149 kts 270°
2026-04-20 23:21 17.60023 -101.40605 937 ft 149 kts 270°
2026-04-20 23:21 17.60050 -101.41684 719 ft 150 kts 270°
2026-04-20 23:22 17.60077 -101.42763 532 ft 149 kts 271°
2026-04-20 23:22 17.60103 -101.43843 317 ft 147 kts 271°
2026-04-20 23:22 17.60125 -101.44887 71 ft 135 kts 271°
2026-04-20 23:22 17.60153 -101.45772 32 ft 108 kts 271°
2026-04-20 23:23 17.60167 -101.46366 25 ft 54 kts 271°
2026-04-20 23:23 17.60175 -101.46642 25 ft 26 kts 272°
2026-04-20 23:23 17.60244 -101.46688 25 ft 12 kts 52°
2026-04-20 23:23 17.60283 -101.46617 25 ft 10 kts 62°
2026-04-20 23:24 17.60316 -101.46555 28 ft 9 kts 60°
2026-04-20 23:24 17.60345 -101.46502 25 ft 8 kts 60°
2026-04-20 23:24 17.60381 -101.46471 27 ft 7 kts 22°
2026-04-20 23:24 17.60431 -101.46465 27 ft 8 kts
2026-04-20 23:25 17.60478 -101.46436 26 ft 11 kts 75°
2026-04-20 23:25 17.60483 -101.46340 26 ft 13 kts 93°
2026-04-20 23:25 17.60508 -101.46298 26 ft 7 kts
2026-04-20 23:25 17.60543 -101.46302 26 ft 3 kts 359°
2026-04-20 23:26 17.60544 -101.46302 26 ft 0 kts 359°